Showing default

BOTAN, 65943

Orbit data source: Space-Track

BOTAN, 65943 is a payload satellite owned by Chiba kogyu (JP) in LEO that was delivered to the ISS. Payload-class satellites include a variety of spacecraft equipped with specific instruments for various scientific and technological missions. These include communications satellites like Starlink; space stations such as the ISS; scientific satellites like the Hubble; Earth observation satellites from companies like Planet Labs, Umbra, and HawkEye 360; GPS; miniature CubeSats for education and research; and military/defense satellites.

Loading next visibility...
Identifier
65943, 1998-067XQ
Orbit
LEO
Country
Flag of JPJP / JPN
Related business
Manufacturer
Chiba kogyu
Mission
Operational Amateur Technology
Bus & Motor
CUBESAT 1U, Unknown motor
Mass
1 kg wet, 1 kg dry
Launch date (UTC)
1998-11-20 (27 years ago)
Launch vehicle
FALCON 9
Launch site
Tyuratam Missile And Space Complex (TTMTR)
Object type
Payload
Rocket body
Debris
Shape & HBR
Box, 0.1 m
Radar Cross Section
0.015 m²

Expand to show TLE details & history
Last TLE update: 23 hours ago

TLE from 23 hours ago
0 BOTAN
1 65943U 98067XQ  26034.94039252  .00118334  00000-0  97344-3 0  9996
2 65943  51.6262 230.7980 0003243 231.2100 128.8608 15.69525109 18185
Epoch: 2026-02-03T22:34Z
TLE epoch observation values (Epoch: 2026-02-03T22:34:09.913Z)
Latitude
-0.00001°
Longitude
118.14257°
Altitude
362.373 km
Speed
7.692 km/s
True Right ascension
15h 23m 11s
True Declination
0° 00' 00"
Sunlit
Object was in daylight at epoch
Visualization orbit readout
Latitude
Unknown
Longitude
Unknown
Altitude
Unknown
Speed
Unknown
Apparent Right ascension
Unknown
Apparent Declination
Unknown
Sunlit
N/A
Visualization observer readout
Local Sidereal Time
23:44:43
Azimuth
Unknown
Elevation
Unknown
Doppler factor
Unknown
Orbital elements
Apogee altitude
362.956 km
Perigee altitude
358.585 km
Semi-major axis
6,738.907 km
Eccentricity
0.00032
Inclination
51.6262°
RAAN
230.798°
Arg. of periapsis
231.21°
True anomaly
128.88973°
Mean anomaly
128.8608°
Eccentric anomaly
128.87527°
Mean motion
3.92337 °/min
Orbital period
91.76 mins
BSTAR
0.00097344
Loading maneuver chart data...
Computing Atmospheric mass density...

Documentation

Showing up to 5 results
|